98P/Takamizawa

Epoch 2006 Mar. 6.0 TT = JDT 2453800.5  

T 2006 Mar. 6.46878 TT                                  Nakano

q   1.6627910            (2000.0)            P               Q

n   0.13319619     Peri.  157.88213     +0.05196920     +0.98469389

a   3.7972994      Node   114.76485     -0.94149337     +0.10385975

e   0.5621122      Incl.   10.55701     -0.33300065     -0.13996822

P   7.40

From 168 observations 1984-2006, mean residual 0".95.

   Nongravitational parameters A1 = +0.52 +/- 0.06, A2 = +0.0282 +/- 0.0009.

Residuals in seconds of arc 

1984/                     840824 323  1.2+  0.1+    910320 801  1.3-  0.7+  

840706 026  0.3-  2.4+    840825 474  0.4-  0.1-    910320 801  1.5-  1.2+  

840708 026  1.6+  0.4-    840825 474  0.7-  0.4+    910408 675  0.2+  0.6-  

840726 372 (3.8-  4.0+)   840826 811 (1.0-  2.7+)   910408 675  2.1+  0.5-  

840726 372 (6.5-  4.7+)Y  840826 801  0.1-  0.7-    910411 657  0.5+  1.1+  

840731 387 (1.6-  2.6-)   840827 801  0.5-  0.3+    910411 657  0.6+  0.5+  

840801 675(10.2-  1.3+)   840827 707  0.4-  0.3-    910411 675  0.7+  1.5-  

840801 381  0.4+  0.5+    840827 323  0.1+  0.8+    910411 675  0.9-  1.3+  

840802 010  1.3-  1.3+    840828 801  0.9-  0.1-    910412 801  0.9-  0.2+  

840802 010 (2.2-  2.8-)   840828 323  0.6+  0.7+    910412 801  2.2-  0.6+  

840802 010 (2.9+  2.6+)   840828 056  0.3-  1.0+    910412 657  2.2-  0.9-  

840802 657  1.0+  0.4-    840828 056 (2.7+  2.2+)   910413 801  1.0-  0.2+  

840802 415  1.1-  0.5-    840828 051  0.7-  0.7-    910413 675  0.2-  1.1-  

840802 415  0.8-  0.1-    840828 051  0.0   0.5-    910414 801  0.4-  0.4+  

840802 323  0.5-  0.1+    840829 323  0.9-  2.2+    910414 801  0.2-  0.1+  

840802 323  0.9-  0.2+    840829 056  1.0+  2.4+    910422 691  0.2+  0.0   

840802 372 (1.5-  3.9+)   840901 026  0.8+  1.7+    910422 691  0.4+  0.2+  

840802 323  0.5-  0.2-    840902 046 (3.4-  0.9-)   910422 691  0.2+  0.5+  

840802 372 (1.6-  5.0+)   840903 688 (7.7-  1.9+)   910502 657  0.2-  0.4+  

840802 046  0.3-  0.7-    840903 688  0.8+  1.9+    910502 657  0.2+  0.0   

840802 046  0.6-  1.1-    840913 809  2.1+  0.6+    910511 801  0.0   0.1+  

840803 046  0.0   1.5-    840913 809 (2.8+  0.4+)   910511 801  0.7+  0.2-  

840803 046  1.1-  1.2-    840913 809 (3.1+  0.2+)   910512 801  0.1+  0.1+  

840803 688  0.8+  1.1-    840918 809  0.9-  0.4+    910512 801  0.1+  0.1-  

840803 688  0.6+  0.8-    840918 809  1.1-  0.2+    910514 494  1.4+  1.8+  

840803 657  1.6-  0.8-    840918 809  1.0-  0.0     910517 801  0.7+  1.0-  

840803 415  0.7+  0.0     840919 071 (3.2+  2.5+)   910517 801  0.6+  0.6-  

840803 323  0.3-  0.6-    840919 071 (0.3-  2.8+)   910611 801  2.0+  0.6-  

840803 056  0.2+  0.7-    840920 474  0.0   1.5+    910611 801  2.0+  0.6-  

840803 056  0.7-  0.1+    840920 809  0.8+  0.4+    910614 801  1.9+  0.9-  

840803 046  0.5-  0.9-    840920 809  0.7+  0.5+    910614 801  1.4+  1.0-  

840803 046  0.1-  1.3-    840921 809  0.6+  0.4+    910710 801 (0.8+  2.6-) 

840804 046  1.8-  1.3-    840921 809  1.4+  0.9+    910710 801  0.2+  0.7-  

840804 046  0.7-  0.9-    840921 809  1.4+  0.9+    910712 801  0.4+  1.1-  

840804 387 (3.7-  1.7-)   840922 809  1.3+  0.9+    910712 801  0.3+  1.5-  

840804 387  1.3-  0.8-    840922 809  1.4+  1.1+    910806 801 (0.7-  2.8-) 

840804 056  0.8-  0.1+    840922 809  1.6+  1.1+    910806 801  1.6-  0.9-  

840804 056  0.9-  1.3+    840922 809  1.8+  1.1+    910812 801  1.2+  0.2+  

840805 993 (3.5-  1.1-)   840924 095  0.3+  1.6+    910812 801  0.3+  0.1+  

840806 985 (3.8-  3.3-)   840924 095  0.9-  1.7+    910912 801  1.3-  0.8-  

840806 372  0.2+  1.9+    840925 095 (4.3+  2.6+)   910912 801  0.9-  1.0-  

840806 372  1.5+  1.3+    840925 095  0.2+  1.0-    910913 801  1.7-  1.1+  

840806 051  1.1-  0.5-    840926 095 (5.1-  1.2+)   910913 801  2.0-  1.5-  

840806 051  1.0-  0.6-    840926 095 (1.7+  5.2+)   1998/                   

840808 372  0.2-  0.1-    840927 809  0.9+  0.8+    980302 867  1.3-  1.3+  

840815 415  1.6-  0.5-    840927 809  0.9+  0.6+    980302 867 (2.6-  2.6+) 

840817 046  1.0+  0.4-    840927 809  0.4+  0.4+    980302 867  0.9-  1.9+  

840817 046  2.2+  1.6-    840929 095 (0.2+  5.0+)   980516 118  0.0   0.1+  

840817 026  0.4+  1.7-    840929 095 (0.2- 10.1+)   980516 118  0.1-  0.2-  

840819 026 (0.2+  2.7+)   840930 056 (3.3-  3.4+)   980519 867  0.8+  0.1-  

840819 026  0.8-  1.5-    841016 801  1.0-  1.3+    980519 867  0.5-  0.6-  

840820 046 (2.5-  0.6-)   841018 801  0.7+  0.7+    980519 867  0.3+  1.3-  

840820 046  0.0   1.0-    841022 568  0.8-  2.0-    980525 118 (2.8+  0.6-) 

840821 675  0.1-  0.2-    841022 568  0.2+  1.8-    980525 118  1.7+  0.6-  

840821 056 (4.8+  3.0+)   841024 474  1.3-  0.0     980619 696  0.0   0.3+  

840821 046  0.7-  0.9-    841024 474  0.1+  0.2-    980619 696  0.3+  0.5+  

840821 046  0.8+  0.8-    841025 474  0.4-  0.1+    980619 696  0.3+  0.1-  

840821 056 (0.6-  3.0+)   841025 474  0.1-  0.8+    2006/                   

840822 688  0.7+  1.1+    841125 474  0.9+  1.6-    060324 G96  0.6+  0.7+  

840822 688 (0.4-  3.1-)   841125 474 (7.6-  6.2-)   060324 G96  0.7-  0.6+  

840822 046  0.0   0.8-    1991/                     060324 G96  1.0-  0.8+  

840822 046  0.9+  0.5-    910212 372 (2.9-  2.1+)   060324 G96  0.7-  0.7+  

840822 056  0.4+  1.2+    910217 691  0.6-  1.4+    060325 G96  0.2+  1.4+  

840822 984  1.2+  2.1+    910217 691  0.7-  0.2+    060325 G96  0.5+  1.4+  

840823 474  0.4-  0.0     910217 691  0.3-  0.9+    060325 G96  0.7+  0.8+  

840823 474  0.6-  0.5-    910219 691  0.2+  0.5+    060325 G96  0.2+  1.1+  

840823 323  0.8+  0.3+    910219 691  0.4+  0.2-    060402 349 (4.8-  1.4+) 

840823 046  0.4+  0.8-    910219 691  0.0   0.0     060402 349 (4.2-  1.9+) 

840823 046  1.3+  0.6-    910222 372  1.0+  0.1+    060402 349 (4.7-  2.1+) 

840824 801  1.5-  0.3+    910317 801  1.4-  1.1+    060403 349 (4.1-  0.3-) 

840824 372  1.4+  0.9+    910317 801  0.8-  1.2+    060403 349 (4.3-  1.3+) 



NAKANO

         **** Don't distribute anyone except personal use only ****

                (C) Copyright 2006 OAA/ComputingSection

write mail from CFAD0::NAKANO on 2006-04-06 06:07:37(JST).



◎98Pの軌道と予報位置です 

 

  上尾の門田健一氏から4月2日と3日の観測が報告されました.この彗星は,

マウント・レモンで3月24日と25日に今期の回帰がすでに観測されていました.

それぞれの CCD全光度は,3月24日に15.9等,4月2日に15.5等,3日に15.6等

でした.予報軌道(NK 931 (= MPC 48382))からのずれは,門田氏の最後の観測

に対して,+15"でした.近日点通過への補正値にして儺=-0.013日となります.

なお,門田氏の観測の赤経がマイナス方向に大きい原因を,まだ,調べていませ

ん.



  98P/Takamizawa

Epoch 2006 Mar. 6.0 TT = JDT 2453800.5  

T 2006 Mar. 6.46878 TT                                  Nakano

q   1.6627910            (2000.0)            P               Q

n   0.13319619     Peri.  157.88213     +0.05196920     +0.98469389

a   3.7972994      Node   114.76485     -0.94149337     +0.10385975

e   0.5621122      Incl.   10.55701     -0.33300065     -0.13996822

P   7.40

From 168 observations 1984-2006, mean residual 0".95.

   Nongravitational parameters A1 = +0.52 +/- 0.06, A2 = +0.0282 +/- 0.0009.

 

Date/        TT  R.A.(2000) Decl.     Delta   r     Daily motion  Mag.  Moon Age

              h    h  m       。  ,                      ,  / PA 。  m1      。

2006 Apr.  1 18  21 15.78  -14 46.0   2.045  1.683    39.7 /  80  15.1  100  .15

           2 18  21 18.47  -14 38.8   2.040  1.685    39.6 /  79  15.1  112  .23

           3 18  21 21.14  -14 31.4   2.035  1.687    39.4 /  79  15.1  125  .33

           4 18  21 23.81  -14 24.1   2.031  1.688    39.3 /  79  15.1  137  .43

           5 18  21 26.46  -14 16.7   2.026  1.690    39.1 /  79  15.1  149  .52

           6 18  21 29.10  -14 09.2   2.021  1.692    39.0 /  79  15.1  160  .62

           7 18  21 31.73  -14 01.7   2.017  1.694    38.8 /  79  15.1  171  .71

           8 18  21 34.35  -13 54.2   2.012  1.696    38.7 /  79  15.1  175  .79

           9 18  21 36.95  -13 46.6   2.008  1.698    38.5 /  79  15.1  165  .86

          10 18  21 39.54  -13 39.0   2.003  1.700    38.3 /  79  15.1  155  .92

          11 18  21 42.12  -13 31.4   1.998  1.702    38.2 /  79  15.1  143  .96

          12 18  21 44.68  -13 23.7   1.994  1.704    38.0 /  78  15.1  132  .99

          13 18  21 47.23  -13 16.1   1.989  1.706    37.8 /  78  15.1  120 1.00

          14 18  21 49.77  -13 08.4   1.985  1.708    37.7 /  78  15.1  109  .99

          15 18  21 52.29  -13 00.7   1.980  1.710    37.5 /  78  15.1   97  .96

          16 18  21 54.80  -12 53.0   1.975  1.713    37.3 /  78  15.2   85  .91

          17 18  21 57.30  -12 45.3   1.971  1.715    37.2 /  78  15.2   72  .84

          18 18  21 59.78  -12 37.6   1.966  1.718    37.0 /  78  15.2   60  .75

          19 18  22 02.25  -12 29.9   1.962  1.720    36.8 /  78  15.2   47  .65

          20 18  22 04.71  -12 22.2   1.957  1.723    36.6 /  78  15.2   34  .54

          21 18  22 07.15  -12 14.5   1.952  1.725    36.4 /  78  15.2   21  .43

          22 18  22 09.58  -12 06.8   1.948  1.728    36.2 /  78  15.2    7  .32

          23 18  22 11.99  -11 59.2   1.943  1.731    36.0 /  78  15.2    7  .22

          24 18  22 14.39  -11 51.5   1.939  1.733    35.8 /  78  15.2   21  .13

          25 18  22 16.78  -11 43.9   1.934  1.736    35.6 /  78  15.2   35  .06

          26 18  22 19.15  -11 36.3   1.929  1.739    35.4 /  78  15.2   49  .02

          27 18  22 21.50  -11 28.8   1.925  1.742    35.2 /  78  15.2   63  .00

          28 18  22 23.84  -11 21.2   1.920  1.745    35.0 /  78  15.3   77  .01

          29 18  22 26.17  -11 13.8   1.915  1.748    34.8 /  78  15.3   90  .05

          30 18  22 28.48  -11 06.3   1.911  1.751    34.6 /  78  15.3  103  .11

     May   1 18  22 30.77  -10 58.9   1.906  1.754    34.4 /  78  15.3  116  .18

NAKANO

         **** Don't distribute anyone except personal use only ****

                (C) Copyright 2006 OAA/ComputingSection

write mail from CFAD0::NAKANO on 2006-04-05 04:48:35(JST).

 



 佐治天文台では,3月2日にこの彗星の観測に成功し,5月19日にこの彗星の

回帰を確認しました.モドラでも,5月16日と25日にこの彗星を観測しています.

佐治でのCCD 全光度は,3月に20.6等,5月に19.6等,モドラでは,16日に18.2

等,25日に18.7等と観測されています.



  98P/Takamizawa 

Epoch 1998 Nov. 3.0 TT = JDT 2451120.5  

T 1998 Nov. 7.98617 TT                                  Nakano

q   1.5852235            (2000.0)            P               Q

n   0.13674328     Peri.  147.79968     +0.05214137     +0.98943065

a   3.7313449      Node   124.84584     -0.94762869     +0.09177202

e   0.5751603      Incl.    9.48972     -0.31508911     -0.11227151

P   7.21

From 157 observations 1984-1998, mean residual 0".96  Nongravitational

   parameters A1 = +1.05 +/- 0.25, A2 = +0.0208 +/- 0.0036.



NAKANO

write mail from CFAD0::NAKANO on 1998-05-28 05:31:32(JST).

 





戻ります。